Location: Six Mile Lake
(44.9000°N, 79.7170°W)
Time: 01:28:03
(UTC-04:00)

O/OREOS (USA 219) - Pass Details

Date: 04 July 2022
Orbit: 621 x 646 km, 72.0° (Epoch: 22 May)

Event Time Altitude Azimuth Distance (km) Brightness Sun altitude
Rises 02:43:19 0° 314° (NW) 2,964 ? -19.8°
Reaches altitude 10° 02:47:21 10° 279° (W) 2,048 ? -19.6°
Enters shadow 02:48:06 11° 270° (W) 1,989 ? -19.5°
